Hourly Weather Bolshoy Kuganak

Today, 3 August, Tuesday

Time Temperature Precipitation Wind Pressure Humidity
00:00 +22°C° 0 mm 1 mps 749 mmHg 47%
01:00 +22°C° 0 mm 1 mps 749 mmHg 49%
02:00 +21°C° 0 mm 1 mps 749 mmHg 50%
03:00 +21°C° 0 mm 1 mps 749 mmHg 51%
04:00 +20°C° 0 mm 1 mps 749 mmHg 53%
05:00 +22°C° 0 mm 1 mps 750 mmHg 49%
06:00 +24°C° 0 mm 2 mps 750 mmHg 45%
07:00 +25°C° 0 mm 2 mps 750 mmHg 41%
08:00 +28°C° 0 mm 2 mps 750 mmHg 36%
09:00 +31°C° 0 mm 3 mps 749 mmHg 31%
10:00 +34°C° 0 mm 3 mps 749 mmHg 25%
11:00 +36°C° 0 mm 3 mps 749 mmHg 23%
12:00 +37°C° 0 mm 2 mps 749 mmHg 21%
13:00 +38°C° 0 mm 2 mps 748 mmHg 19%
14:00 +38°C° 0 mm 2 mps 748 mmHg 19%
15:00 +37°C° 0 mm 1 mps 747 mmHg 19%
16:00 +37°C° 0 mm 1 mps 747 mmHg 20%
17:00 +37°C° 0 mm 2 mps 747 mmHg 23%
18:00 +35°C° 0 mm 2 mps 746 mmHg 26%
19:00 +34°C° 0 mm 3 mps 746 mmHg 30%
20:00 +31°C° 0 mm 2 mps 746 mmHg 34%
21:00 +29°C° 0 mm 2 mps 746 mmHg 39%
22:00 +27°C° 0 mm 2 mps 746 mmHg 44%
23:00 +26°C° 0 mm 2 mps 746 mmHg 45%

Tomorrow, 4 August, Wednesday

Time Temperature Precipitation Wind Pressure Humidity
00:00 +25°C° 0 mm 2 mps 747 mmHg 47%
01:00 +24°C° 0 mm 2 mps 747 mmHg 49%
02:00 +24°C° 0 mm 2 mps 747 mmHg 50%
03:00 +23°C° 0 mm 2 mps 747 mmHg 50%
04:00 +23°C° 0 mm 2 mps 747 mmHg 51%
05:00 +24°C° 0 mm 2 mps 747 mmHg 47%
06:00 +26°C° 0 mm 1 mps 747 mmHg 43%
07:00 +28°C° 0 mm 1 mps 747 mmHg 39%
08:00 +30°C° 0 mm 1 mps 747 mmHg 33%
09:00 +33°C° 0 mm 1 mps 747 mmHg 28%
10:00 +37°C° 0 mm 2 mps 747 mmHg 23%
11:00 +39°C° 0 mm 2 mps 747 mmHg 20%
12:00 +40°C° 0 mm 1 mps 747 mmHg 17%
13:00 +42°C° 0 mm 1 mps 746 mmHg 14%
14:00 +38°C° 0.1 mm 4 mps 746 mmHg 23%
15:00 +34°C° 0.1 mm 6 mps 746 mmHg 31%
16:00 +31°C° 0.1 mm 8 mps 746 mmHg 40%
17:00 +30°C° 0 mm 6 mps 746 mmHg 38%
18:00 +32°C° 0 mm 5 mps 746 mmHg 35%
19:00 +31°C° 0 mm 3 mps 746 mmHg 33%
20:00 +29°C° 0 mm 3 mps 746 mmHg 37%
21:00 +27°C° 0 mm 3 mps 746 mmHg 41%
22:00 +25°C° 0 mm 2 mps 746 mmHg 44%
23:00 +25°C° 0 mm 2 mps 746 mmHg 45%

Day after tomorrow, 5 August, Thursday

Time Temperature Precipitation Wind Pressure Humidity
00:00 +24°C° 0 mm 2 mps 746 mmHg 46%
01:00 +24°C° 0 mm 1 mps 746 mmHg 47%
02:00 +24°C° 0 mm 1 mps 746 mmHg 48%
03:00 +23°C° 0 mm 1 mps 745 mmHg 48%
04:00 +23°C° 0 mm 1 mps 745 mmHg 49%
05:00 +24°C° 0 mm 1 mps 745 mmHg 48%
06:00 +25°C° 0 mm 1 mps 746 mmHg 47%
07:00 +26°C° 0 mm 1 mps 746 mmHg 47%
08:00 +27°C° 0 mm 3 mps 746 mmHg 44%
09:00 +29°C° 0 mm 4 mps 746 mmHg 42%
10:00 +30°C° 0 mm 5 mps 747 mmHg 40%
11:00 +32°C° 0 mm 4 mps 747 mmHg 38%
12:00 +33°C° 0 mm 4 mps 746 mmHg 37%
13:00 +34°C° 0 mm 4 mps 746 mmHg 35%
14:00 +34°C° 0 mm 4 mps 746 mmHg 34%
15:00 +34°C° 0 mm 4 mps 746 mmHg 34%
16:00 +34°C° 0 mm 4 mps 746 mmHg 33%
17:00 +30°C° 0.9 mm 3 mps 746 mmHg 49%
18:00 +26°C° 0.9 mm 2 mps 747 mmHg 64%
19:00 +23°C° 0.9 mm 2 mps 747 mmHg 79%
20:00 +21°C° 1.2 mm 2 mps 747 mmHg 83%
21:00 +20°C° 1.2 mm 2 mps 747 mmHg 87%
22:00 +19°C° 1.2 mm 3 mps 747 mmHg 91%
23:00 +19°C° 0 mm 2 mps 747 mmHg 91%

6 August, Friday

Time Temperature Precipitation Wind Pressure Humidity
00:00 +18°C° 0 mm 2 mps 747 mmHg 90%
01:00 +19°C° 0 mm 1 mps 748 mmHg 90%
02:00 +17°C° 0 mm 2 mps 748 mmHg 89%
03:00 +17°C° 0 mm 2 mps 748 mmHg 89%
04:00 +16°C° 0 mm 2 mps 748 mmHg 88%
05:00 +17°C° 0 mm 2 mps 748 mmHg 86%
06:00 +18°C° 0 mm 3 mps 749 mmHg 84%
07:00 +18°C° 0 mm 3 mps 749 mmHg 82%
08:00 +20°C° 0 mm 4 mps 749 mmHg 70%
09:00 +22°C° 0 mm 4 mps 750 mmHg 57%
10:00 +25°C° 0 mm 5 mps 750 mmHg 44%
11:00 +26°C° 0 mm 5 mps 750 mmHg 38%
12:00 +27°C° 0 mm 5 mps 750 mmHg 33%
13:00 +28°C° 0 mm 5 mps 750 mmHg 28%
14:00 +28°C° 0 mm 5 mps 750 mmHg 27%
15:00 +29°C° 0 mm 5 mps 750 mmHg 26%
16:00 +29°C° 0 mm 5 mps 749 mmHg 26%
17:00 +27°C° 0 mm 4 mps 750 mmHg 29%
18:00 +26°C° 0 mm 4 mps 750 mmHg 33%
19:00 +25°C° 0 mm 3 mps 750 mmHg 36%
20:00 +23°C° 0 mm 2 mps 750 mmHg 42%
21:00 +20°C° 0 mm 2 mps 750 mmHg 47%
22:00 +19°C° 0 mm 1 mps 750 mmHg 53%
23:00 +17°C° 0 mm 2 mps 750 mmHg 56%

7 August, Saturday

Time Temperature Precipitation Wind Pressure Humidity
00:00 +16°C° 0 mm 2 mps 750 mmHg 58%
01:00 +15°C° 0 mm 2 mps 751 mmHg 61%
02:00 +15°C° 0 mm 2 mps 751 mmHg 62%
03:00 +14°C° 0 mm 2 mps 751 mmHg 64%
04:00 +13°C° 0 mm 1 mps 752 mmHg 65%
05:00 +15°C° 0 mm 2 mps 752 mmHg 60%
06:00 +16°C° 0 mm 2 mps 752 mmHg 56%
07:00 +17°C° 0 mm 2 mps 753 mmHg 51%
08:00 +19°C° 0 mm 3 mps 753 mmHg 46%
09:00 +21°C° 0 mm 3 mps 753 mmHg 40%
10:00 +23°C° 0 mm 4 mps 753 mmHg 35%
11:00 +25°C° 0 mm 4 mps 752 mmHg 33%
12:00 +26°C° 0 mm 4 mps 752 mmHg 31%
13:00 +28°C° 0 mm 4 mps 752 mmHg 29%
14:00 +28°C° 0 mm 5 mps 752 mmHg 29%
15:00 +28°C° 0 mm 5 mps 752 mmHg 28%
16:00 +29°C° 0 mm 5 mps 752 mmHg 28%
17:00 +28°C° 0 mm 5 mps 752 mmHg 31%
18:00 +27°C° 0 mm 4 mps 752 mmHg 34%
19:00 +25°C° 0 mm 4 mps 752 mmHg 38%
20:00 +22°C° 0 mm 3 mps 753 mmHg 44%
21:00 +20°C° 0 mm 2 mps 753 mmHg 50%
22:00 +18°C° 0 mm 2 mps 753 mmHg 56%
23:00 +19°C° 0 mm 1 mps 753 mmHg 58%

8 August, Sunday

Time Temperature Precipitation Wind Pressure Humidity
00:00 +18°C° 0 mm 1 mps 753 mmHg 61%
01:00 +16°C° 0 mm 1 mps 753 mmHg 63%
02:00 +16°C° 0 mm 1 mps 754 mmHg 65%
03:00 +15°C° 0 mm 1 mps 754 mmHg 66%
04:00 +14°C° 0 mm 1 mps 754 mmHg 68%
05:00 +16°C° 0 mm 1 mps 755 mmHg 63%
06:00 +18°C° 0 mm 1 mps 755 mmHg 59%
07:00 +18°C° 0 mm 2 mps 755 mmHg 55%
08:00 +20°C° 0 mm 3 mps 755 mmHg 48%
09:00 +22°C° 0 mm 3 mps 755 mmHg 42%
10:00 +25°C° 0 mm 4 mps 755 mmHg 36%
11:00 +26°C° 0 mm 4 mps 755 mmHg 33%
12:00 +27°C° 0 mm 4 mps 755 mmHg 30%
13:00 +28°C° 0 mm 4 mps 755 mmHg 27%
14:00 +29°C° 0 mm 4 mps 755 mmHg 26%
15:00 +29°C° 0 mm 4 mps 754 mmHg 25%
16:00 +29°C° 0 mm 4 mps 754 mmHg 25%
17:00 +28°C° 0 mm 4 mps 754 mmHg 27%
18:00 +27°C° 0 mm 3 mps 754 mmHg 30%
19:00 +25°C° 0 mm 3 mps 755 mmHg 33%
20:00 +22°C° 0 mm 3 mps 755 mmHg 37%
21:00 +20°C° 0 mm 2 mps 755 mmHg 41%
22:00 +19°C° 0 mm 1 mps 755 mmHg 44%
23:00 +19°C° 0 mm 1 mps 755 mmHg 45%
Show more

We Need Your Consent

Meteoprog and our Service Providers may store and access personal data such as cookies, device identifiers or other similar technologies on your device and process such data to personalise content and ads, as well as provide social media features and to analyse the traffic.

  • Store and/or access information on your device

    Cookies, device identifiers or other information can be stored or accessed on your device for the purposes indicated above.

  • Personalised ads and content, ad and content measurement, audience insights, and products development

    Ads and content can be personalised based on a profile. More data can be added to better personalise ads and content. Ad and content performance can be measured. Insights about the audience who saw the ads and content can be derived. Such data can be used to develop or improve user’s experience, systems and software.

By clicking ‘I Agree’ you will allow the use of indicated cookies, device identifiers, web beacons or other similar technologies. Your settings can be changed in the browser on your device.

For certain purposes, legitimate interests may be relied on, rather than consent. You can read more about this in our Privacy and Cookie Policy.